Regional Weather Roundup
Issued by NWS

Home | Current Version | Previous Version | Text Only | Print | Product List | Glossary Off
Versions: 1 2 3 4 5 6 7 8 9 10 11 12 13 14 15 16 17 18 19 20 21 22 23 24 25 26 27

000
ASUS45 KBOU 211010
RWRCO

WEATHER ROUNDUP FOR COLORADO
NATIONAL WEATHER SERVICE DENVER/BOULDER CO
300 AM MST SUN JAN 21 2018

NOTE: "FAIR" INDICATES FEW OR NO CLOUDS BELOW 12000 FEET WITH NO
SIGNIFICANT WEATHER AND/OR OBSTRUCTIONS TO VISIBILITY.

COZ001>005-013-030-031-211100-
...NORTHWEST COLORADO...

CITY           SKY/WX    TMP DP  RH WIND       PRES   REMARKS
CRAIG          LGT SNOW  22  19  89 SW9       29.74S FOG     WCI  12
HAYDEN         LGT SNOW N/A N/A N/A W9        29.73F
MEEKER         LGT SNOW  25  21  85 CALM      29.72R FOG
RABBIT EARS PA LGT SNOW  18  16  93 CALM      29.66F
STEAMBOAT SPGS CLOUDY    24  23  96 CALM      29.68F
WALDEN         CLOUDY    19  16  86 NW7       29.69F WCI  10
$$

COZ006>008-011-211100-
...WEST CENTRAL VALLEYS...

CITY           SKY/WX    TMP DP  RH WIND       PRES   REMARKS
GRAND JUNCTION LGT SNOW  31  31 100 W13       29.74S VSB 1   WCI  21
MONTROSE       FAIR      31  19  61 E6        29.72S WCI  25
EAGLE          CLOUDY    30  27  88 E7        29.69F WCI  23
RIFLE          CLOUDY    32  30  92 NW9       29.69R WCI  24
DELTA          FAIR      34  32  92 SW5       29.72S WCI  30
NUCLA          CLOUDY    30  28  93 CALM      29.79S
$$

COZ017>023-064>068-211100-
...SOUTHWEST COLORADO...

CITY           SKY/WX    TMP DP  RH WIND       PRES   REMARKS
DURANGO        FLURRIES  27  26  96 W9        29.74F WCI  18
CORTEZ         FAIR      25  22  88 S8        29.77F WCI  16
PAGOSA SPRINGS LGT SNOW  26  26  99 SW6       29.72F WCI  20
TELLURIDE      FAIR      20  17  88 W5        29.71S WCI  13
WOLF CREEK PAS LGT SNOW  10  10 100 MISG      29.69F VSB 1
$$

COZ009-010-012-014-032>034-037-058>063-211100-
...CENTRAL COLORADO...

CITY           SKY/WX    TMP DP  RH WIND       PRES   REMARKS
ASPEN          CLOUDY    28  23  81 SE5       29.64F WCI  23
BUENA VISTA    CLOUDY    28  26  90 S5        29.65F WCI  23
COPPER MTN     NOT AVBL
BERTHOUD PASS  SNOW      12   1  62 MISG      29.65F VSB 1/2
COTTONWOOD PAS   N/A     30  27  86 SE3       29.65F FOG
GUNNISON       FLURRIES  26  24  92 SW3       29.69S
KREMMLING      FLURRIES  32  28  86 E3        29.69F
LEADVILLE      LGT SNOW  21  19  92 NE5       29.64F VSB 3/4 WCI  15
MONARCH PASS   CLOUDY    16  12  86 W23       29.76F FOG     WCI  -2
SALIDA         CLOUDY    32  28  85 SE7       29.73F WCI  26
SUNLIGHT       LGT SNOW  16  14  93 S9        29.69F WCI   4
WILKERSON PASS LGT SNOW  19  18  93 SW14G21   29.69R VSB 3/4 WCI   6
$$

COZ069>075-211100-
...SAN LUIS VALLEY/SANGRE DE CRISTO MOUNTAINS...

CITY           SKY/WX    TMP DP  RH WIND       PRES   REMARKS
ALAMOSA        CLOUDY    30  16  56 SE15      29.70F WCI  19
DEL NORTE      MOCLDY    27  16  62 W15       29.64F WCI  16
LA VETA PASS   HVY SNOW  21  18  86 S25G40      N/A  VSB 1/4 WCI   4
SAGUACHE       CLOUDY    28  23  80 SE8       29.69R WCI  20
$$

COZ035-036-038>040-211100-
...NORTHERN COLORADO FRONT RANGE...

CITY           SKY/WX    TMP DP  RH WIND       PRES   REMARKS
DENVER INTL AP FRZ DRZL  27  24  89 NE15      29.78F FOG     WCI  15
DMNS CITY PARK NOT AVBL
AURORA         FRZ DRZL  26  26 100 NE12      29.78S WCI  16
FRONT RANGE AP MIX PCPN  29  28  96 NE9       29.79F WCI  21
ERIE MUNI ARPT LGT SNOW  28  27  96 NE7       29.86F WCI  21
BOULDER MUN AP LGT SNOW  28  28 100 N5        29.80S WCI  23
CENTENNIAL     FRZ DRZL  26  26 100 NE8       29.77R FOG     WCI  18
BROOMFIELD     LGT SNOW  28  28 100 NE10      29.79S WCI  19
FORT COLLINS   LGT SNOW  27  26  96 NE10      29.83S FOG     WCI  17
LONGMONT       FLURRIES  30  28  92 NE8       29.84S WCI  23
$$

COZ041-046-047-076>085-087-088-211100-
...PIKES PEAK/PALMER DIVIDE AND SOUTHERN FOOTHILLS...

CITY           SKY/WX    TMP DP  RH WIND       PRES   REMARKS
COLO. SPRINGS  CLOUDY    29  24  82 N5        29.73R WCI  24
A. F. ACADEMY  CLOUDY    28  25  88 N12       29.71R WCI  18
SCHRIEVER AFB  CLOUDY    27  25  93 N9        29.73R WCI  17
CHEYENNE MTN   FLURRIES  27  25  93 S5        29.66R WCI  21
ELLICOTT         N/A    N/A N/A N/A NE8       29.71S
FALCON         CLOUDY    26  25  99 N9        29.72S FOG     WCI  16
FORT CARSON    FLURRIES  28  25  86 S8        29.72R WCI  20
LIMON          CLOUDY    26  25  96 N9        29.76R WCI  17
MONUMENT HILL  FOG       23  21  93 N7        29.74S VSB 1/4 WCI  15
CANON CITY     LGT SNOW  32  30  93 E9        29.72F VSB 3/4 WCI  24
WALSENBURG     CLOUDY    28  28 100 CALM      29.70F
TRINIDAD       CLOUDY    29  25  85 NE7       29.72S WCI  22
$$

COZ042>045-048>051-090-091-211100-
...NORTHEAST COLORADO...

CITY           SKY/WX    TMP DP  RH WIND       PRES   REMARKS
GREELEY ARPT   LGT SNOW  28  27  96 NE6       29.84F FOG     WCI  22
AKRON          CLOUDY    27  25  92 NE15      29.79S WCI  15
BURLINGTON     CLOUDY    29  27  92 N14       29.75F WCI  18
WRAY           CLOUDY    32  28  86 NE13      29.81S WCI  22
YUMA           CLOUDY    28  27  93 N7        29.80R WCI  21
STERLING       CLOUDY    30  30 100 N7        29.84R WCI  23
HOLYOKE        CLOUDY    34  30  86 NE14      29.83R WCI  24
FORT MORGAN    CLOUDY    29  25  84 NE12      29.84S WCI  19
$$

COZ086-089-092>099-211100-
...SOUTHEAST COLORADO...

CITY           SKY/WX    TMP DP  RH WIND       PRES   REMARKS
PUEBLO         CLOUDY    33  26  75 E3        29.75R
LA JUNTA       CLOUDY    33  26  75 NE3       29.75S
LAMAR          CLOUDY    31  26  82 N7        29.73R WCI  24
SPRINGFIELD      N/A     25  23  92 NW13      29.71R WCI  14
$$




USA.gov is the U.S. government's official web portal to all federal, state and local government web resources and services.